Location: Az?znagar
(16.8373°N, 80.5091°E)
Time: 22:35:37
(UTC+00:00)

Nadezhda 4 Rocket - Pass Details

Date: 07 July 2022
Orbit: 949 x 992 km, 82.9° (Epoch: 09 August)

Event Time Altitude Azimuth Distance (km) Brightness Sun altitude
Rises 22:47:44 0° 166° (SSE) 3,659 6.8 -18.4°
Reaches altitude 10° 22:50:23 10° 159° (SSE) 2,707 6.2 -17.8°
Maximum altitude 22:56:08 41° 91° (E) 1,363 5.2 -16.7°
Drops below altitude 10° 23:01:49 10° 23° (NNE) 2,684 7.1 -15.5°
Sets 23:04:26 0° 16° (NNE) 3,626 7.7 -14.9°
